Showing default

JASON 3, 41240

Orbit data source: Space-Track

JASON 3, 41240 is an American payload satellite in LEO that was launched on Sun, 17 Jan 2016 UTC via an FALCON 9 launch vehicle from the Air Force Western Test Range (AFWTR). Payload-class satellites include a variety of spacecraft equipped with specific instruments for various scientific and technological missions. These include communications satellites like Starlink; space stations such as the ISS; scientific satellites like the Hubble; Earth observation satellites from companies like Planet Labs, Umbra, and HawkEye 360; GPS; miniature CubeSats for education and research; and military/defense satellites.

Loading next visibility...
Identifier
41240, 2016-002A
Orbit
LEO
Country
Flag of USUS
Related business
Manufacturer
Thales Alenia
Mission
Partially operational Civil Sci/Met
Bus & Motor
PROTEUS, AOCS
Mass
553 kg wet, 525 kg dry
Launch date (UTC)
2016-01-17 (10 years ago)
Launch vehicle
FALCON 9
Launch site
Air Force Western Test Range (AFWTR)
Object type
Payload
Rocket body
Debris
Shape & HBR
Box + 2 Pan, 4.8 m
Radar Cross Section
12.823 m², Large (>1 m²)

Expand to show TLE details & history
Last TLE update: 7 hours ago

TLE from 7 hours ago
0 JASON 3
1 41240U 16002A   25258.28419548 -.00000045  00000-0  68830-4 0  9992
2 41240  66.0448 343.7947 0007757 265.1389  94.8744 12.87626990451857
Epoch: 2025-09-15T06:49Z
TLE epoch observation values (Epoch: 2025-09-15T06:49:14.489Z)
Latitude
-0.00003°
Longitude
-113.00674°
Altitude
1,313.384 km
Speed
7.2 km/s
True Right ascension
22h 55m 10s
True Declination
0° 00' 00"
Sunlit
Object was in full shadow at epoch
Visualization orbit readout
Latitude
Unknown
Longitude
Unknown
Altitude
Unknown
Speed
Unknown
Apparent Right ascension
Unknown
Apparent Declination
Unknown
Sunlit
N/A
Visualization observer readout
Local Sidereal Time
06:52:09
Azimuth
Unknown
Elevation
Unknown
Doppler factor
Unknown
Orbital elements
Apogee altitude
1,315.477 km
Perigee altitude
1,303.55 km
Semi-major axis
7,687.651 km
Eccentricity
0.00078
Inclination
66.0448°
RAAN
343.7947°
Arg. of periapsis
265.1389°
True anomaly
94.96296°
Mean anomaly
94.8744°
Eccentric anomaly
94.91868°
Mean motion
3.21998 °/min
Orbital period
111.8 mins
BSTAR
0.00006883
Loading maneuver chart data...
Computing Atmospheric mass density...
Loading historical data...
Loading historical data...
Loading historical data...
Loading historical data...
Loading historical data...
Loading historical data...
Loading historical data...
Other satellites on launch #2 in the year 2016 (2016-01-17 UTC)

Documentation

Showing up to 5 results
|